Weather History for Novato, CA

Change the Weather History Date:

Monday, January 6, 2014

  Actual Average (KAPC) Record (KAPC)
Temperature  
Mean Temperature 44 °F 45 °F  
Max Temperature 57 °F 54 °F 66 °F (2003)
Min Temperature 32 °F 37 °F 25 °F (2007)
Degree Days  
Heating Degree Days 20    
Month to date heating degree days  
Since 1 July heating degree days  
Cooling Degree Days 0    
Month to date cooling degree days  
Year to date cooling degree days  
Moisture  
Dew Point 30 °F    
Average Humidity 59    
Maximum Humidity 81    
Minimum Humidity 31    
Precipitation  
Precipitation 0.00 in - 1.65 in (1959)
Month to date precipitation  
Year to date precipitation  
Since 1 July precipitation  
Sea Level Pressure  
Sea Level Pressure 30.23 in    
Wind  
Wind Speed 3 mph (SSW)    
Max Wind Speed 12 mph    
Max Gust Speed -    
Visibility 10 miles    
Events      
T = Trace of Precipitation, MM = Missing Value Source: NWS Daily Summary

Daily Weather History Graph

Daily Weather History Graph

Search for Another Location

Airport:

Trip Planner

Search our weather history database for the weather conditions in past years. The results will help you decide how hot, cold, wet, or windy it might be!

Date:

Astronomy

Jan. 06, 2014 Rise Set
Actual Time 7:27 AM PST 5:05 PM PST
Civil Twilight 6:57 AM PST 5:34 PM PST
Nautical Twilight 6:24 AM PST 6:07 PM PST
Astronomical Twilight 5:52 AM PST 6:39 PM PST
Moon 10:51 AM PST (1/6) 11:38 PM PST (1/6)
Length of Visible Light 10h 37m
Length of Day
9h 38m
Waxing Crescent, 36% of the Moon is Illuminated
Jan 6
Waxing Crescent
Jan 7
First Quarter
Jan 15
Full
Jan 23
Last Quarter
Jan 30
New

Hourly Weather History & Observations

Time (PST) Temp. Windchill Dew Point Humidity Pressure Visibility Wind Dir Wind Speed Gust Speed Precip Events Conditions
12:15 AM 35.6 °F - 28.4 °F 75% 30.22 in 10.0 mi Calm Calm - N/A   Clear
12:35 AM 35.6 °F 32.8 °F 26.6 °F 70% 30.23 in 10.0 mi NNW 3.5 mph - N/A   Clear
12:55 AM 32.0 °F - 24.8 °F 75% 30.22 in 10.0 mi Calm Calm - N/A   Clear
1:15 AM 35.6 °F - 26.6 °F 70% 30.23 in 10.0 mi Calm Calm - N/A   Clear
1:35 AM 35.6 °F - 26.6 °F 70% 30.23 in 10.0 mi Calm Calm - N/A   Clear
1:55 AM 32.0 °F - 24.8 °F 75% 30.23 in 10.0 mi Calm Calm - N/A   Clear
2:15 AM 32.0 °F - 26.6 °F 80% 30.24 in 10.0 mi Calm Calm - N/A   Clear
2:35 AM 35.6 °F - 26.6 °F 70% 30.24 in 10.0 mi Calm Calm - N/A   Clear
2:55 AM 32.0 °F - 24.8 °F 75% 30.24 in 10.0 mi Calm Calm - N/A   Clear
3:15 AM 32.0 °F - 26.6 °F 80% 30.24 in 10.0 mi Calm Calm - N/A   Clear
3:35 AM 35.6 °F - 28.4 °F 75% 30.24 in 10.0 mi Calm Calm - N/A   Clear
3:55 AM 32.0 °F - 24.8 °F 75% 30.24 in 10.0 mi Calm Calm - N/A   Clear
4:15 AM 32.0 °F - 26.6 °F 80% 30.24 in 10.0 mi Calm Calm - N/A   Clear
4:35 AM 32.0 °F - 26.6 °F 80% 30.24 in 10.0 mi Calm Calm - N/A   Clear
4:55 AM 33.8 °F 30.8 °F 26.6 °F 75% 30.23 in 10.0 mi SSW 3.5 mph - N/A   Clear
5:15 AM 35.6 °F - 26.6 °F 70% 30.24 in 10.0 mi Calm Calm - N/A   Clear
5:35 AM 33.8 °F 30.8 °F 26.6 °F 75% 30.25 in 10.0 mi North 3.5 mph - N/A   Clear
5:55 AM 33.8 °F - 28.4 °F 81% 30.24 in 10.0 mi Calm Calm - N/A   Clear
6:15 AM 33.8 °F 30.8 °F 28.4 °F 81% 30.25 in 10.0 mi SSW 3.5 mph - N/A   Unknown
6:35 AM 35.6 °F - 28.4 °F 75% 30.25 in 10.0 mi Calm Calm - N/A   Unknown
6:55 AM 33.8 °F - 28.4 °F 81% 30.25 in 10.0 mi Calm Calm - N/A   Unknown
7:15 AM 33.8 °F - 28.4 °F 81% 30.26 in 10.0 mi Calm Calm - N/A   Unknown
7:35 AM 33.8 °F - 28.4 °F 81% 30.27 in 10.0 mi Calm Calm - N/A   Unknown
7:55 AM 35.6 °F - 28.4 °F 75% 30.28 in 10.0 mi Calm Calm - N/A   Clear
8:15 AM 35.6 °F - 28.4 °F 75% 30.28 in 10.0 mi Calm Calm - N/A   Clear
8:35 AM 39.2 °F 33.6 °F 32.0 °F 75% 30.28 in 10.0 mi South 8.1 mph - N/A   Clear
8:55 AM 44.6 °F 41.4 °F 32.0 °F 61% 30.29 in 10.0 mi SSW 5.8 mph - N/A   Clear
9:15 AM 41.0 °F - 33.8 °F 76% 30.30 in 10.0 mi Calm Calm - N/A   Clear
9:35 AM 44.6 °F 41.4 °F 33.8 °F 66% 30.30 in 10.0 mi South 5.8 mph - N/A   Clear
9:55 AM 51.8 °F - 28.4 °F 41% 30.30 in 10.0 mi SSW 6.9 mph - N/A   Clear
10:15 AM 51.8 °F - 30.2 °F 44% 30.29 in 10.0 mi SSW 6.9 mph - N/A   Clear
10:35 AM 50.0 °F - 28.4 °F 43% 30.29 in 10.0 mi SSW 9.2 mph - N/A   Clear
10:55 AM 51.8 °F - 26.6 °F 38% 30.29 in 10.0 mi SSW 11.5 mph - N/A   Clear
11:15 AM 51.8 °F - 28.4 °F 41% 30.29 in 10.0 mi South 8.1 mph - N/A   Clear
11:35 AM 53.6 °F - 30.2 °F 41% 30.28 in 10.0 mi South 6.9 mph - N/A   Clear
11:55 AM 53.6 °F - 28.4 °F 38% 30.27 in 10.0 mi SSE 4.6 mph - N/A   Clear
12:15 PM 53.6 °F - 28.4 °F 38% 30.25 in 10.0 mi ESE 6.9 mph - N/A   Clear
12:35 PM 53.6 °F - 32.0 °F 44% 30.23 in 10.0 mi SSE 5.8 mph - N/A   Clear
12:55 PM 57.2 °F - 26.6 °F 31% 30.23 in 10.0 mi SSW 10.4 mph - N/A   Clear
1:15 PM 57.2 °F - 26.6 °F 31% 30.21 in 10.0 mi SSE 4.6 mph - N/A   Clear
1:35 PM 57.2 °F - 28.4 °F 33% 30.21 in 10.0 mi South 8.1 mph - N/A   Clear
1:55 PM 57.2 °F - 26.6 °F 31% 30.20 in 10.0 mi SSW 9.2 mph - N/A   Clear
2:15 PM 57.2 °F - 28.4 °F 33% 30.20 in 10.0 mi SSW 10.4 mph - N/A   Clear
2:35 PM 55.4 °F - 32.0 °F 41% 30.21 in 10.0 mi SSW 9.2 mph - N/A   Clear
2:55 PM 55.4 °F - 32.0 °F 41% 30.20 in 10.0 mi SSW 8.1 mph - N/A   Clear
3:15 PM 55.4 °F - 32.0 °F 41% 30.20 in 10.0 mi SSW 6.9 mph - N/A   Clear
3:35 PM 55.4 °F - 32.0 °F 41% 30.20 in 10.0 mi SSW 6.9 mph - N/A   Clear
3:55 PM 55.4 °F - 33.8 °F 44% 30.19 in 10.0 mi SW 6.9 mph - N/A   Clear
4:15 PM 55.4 °F - 32.0 °F 41% 30.19 in 10.0 mi SSW 6.9 mph - N/A   Clear
4:35 PM 55.4 °F - 33.8 °F 44% 30.19 in 10.0 mi SSW 6.9 mph - N/A   Clear
4:55 PM 55.4 °F - 32.0 °F 41% 30.18 in 10.0 mi SW 6.9 mph - N/A   Clear
5:15 PM 55.4 °F - 32.0 °F 41% 30.19 in 10.0 mi SW 6.9 mph - N/A   Clear
5:35 PM 55.4 °F - 32.0 °F 41% 30.19 in 10.0 mi SW 6.9 mph - N/A   Clear
5:55 PM 55.4 °F - 32.0 °F 41% 30.20 in 10.0 mi SW 6.9 mph - N/A   Clear
6:15 PM 53.6 °F - 33.8 °F 47% 30.20 in 10.0 mi SW 5.8 mph - N/A   Clear
6:35 PM 53.6 °F - 35.6 °F 51% 30.20 in 10.0 mi SSW 5.8 mph - N/A   Clear
6:55 PM 51.8 °F - 35.6 °F 54% 30.21 in 10.0 mi Calm Calm - N/A   Clear
7:15 PM 50.0 °F - 32.0 °F 50% 30.22 in 10.0 mi NNW 3.5 mph - N/A   Clear
7:35 PM 48.2 °F - 32.0 °F 54% 30.22 in 10.0 mi NNW 4.6 mph - N/A   Clear
7:55 PM 48.2 °F - 32.0 °F 54% 30.22 in 10.0 mi Calm Calm - N/A   Clear
8:15 PM 48.2 °F - 33.8 °F 58% 30.22 in 10.0 mi Calm Calm - N/A   Clear
8:35 PM 48.2 °F - 35.6 °F 62% 30.21 in 10.0 mi South 5.8 mph - N/A   Clear
8:55 PM 48.2 °F - 33.8 °F 58% 30.20 in 10.0 mi South 5.8 mph - N/A   Clear
9:15 PM 48.2 °F - 33.8 °F 58% 30.20 in 10.0 mi South 3.5 mph - N/A   Clear
9:35 PM 48.2 °F - 35.6 °F 62% 30.20 in 10.0 mi Calm Calm - N/A   Clear
9:55 PM 48.2 °F - 35.6 °F 62% 30.20 in 10.0 mi SSE 3.5 mph - N/A   Clear
10:15 PM 46.4 °F - 35.6 °F 66% 30.19 in 10.0 mi Calm Calm - N/A   Clear
10:35 PM 46.4 °F 42.9 °F 35.6 °F 66% 30.20 in 10.0 mi South 6.9 mph - N/A   Clear
10:55 PM 44.6 °F 40.7 °F 33.8 °F 66% 30.20 in 10.0 mi South 6.9 mph - N/A   Clear
11:15 PM 44.6 °F 41.4 °F 35.6 °F 71% 30.21 in 10.0 mi SSW 5.8 mph - N/A   Clear
11:35 PM 44.6 °F - 35.6 °F 71% 30.21 in 10.0 mi Calm Calm - N/A   Clear
11:55 PM 41.0 °F - 32.0 °F 70% 30.21 in 10.0 mi Calm Calm - N/A   Clear